Regional Weather Roundup
Issued by NWS

Home | Current Version | Previous Version | Graphics & Text | Print | Product List | Glossary On
Versions: 1 2 3 4 5 6 7 8 9 10 11 12 13 14 15 16 17 18 19 20 21 22 23 24 25 26 27 28 29 30 31 32 33 34 35 36 37 38 39 40 41 42 43 44 45 46 47 48 49 50
000
ASUS43 KDTX 250701
RWRMI
MICHIGAN HOURLY REGIONAL WEATHER ROUNDUP
NATIONAL WEATHER SERVICE DETROIT/PONTIAC MI
300 AM EDT TUE APR 25 2017

NOTE: "FAIR" INDICATES FEW OR NO CLOUDS BELOW 12,000 FEET WITH NO
SIGNIFICANT WEATHER AND/OR OBSTRUCTION TO VISIBILITY.

MIZ047>049-052>055-059>063-066>070-074>076-081>083-250800-
SOUTHEAST LOWER MICHIGAN

CITY           SKY/WX    TMP DP  RH WIND       PRES   REMARKS
ADRIAN         CLEAR     50  47  89 E6        29.86S
ALMA           CLOUDY    47  42  84 E6        29.87F
ANN ARBOR      CLEAR     53  46  77 E7        29.86F
BAD AXE        CLOUDY    46  35  65 SE7       29.92F
CARO           CLOUDY    48  37  66 E7        29.90S
DETROIT CITY   PTCLDY    50  43  77 E5        29.89F
DETROIT        CLOUDY    53  43  68 E6        29.88S
FLINT          PTCLDY    49  40  71 E6        29.89S
GROSSE ILE     MOCLDY    51  43  74 E8        29.87S
HILLSDALE      PTCLDY    50  45  81 E7        29.84S
HOWELL         CLOUDY    53  40  61 E8        29.87S

CITY           SKY/WX    TMP DP  RH WIND       PRES   REMARKS
JACKSON        CLOUDY    52  44  74 SE8       29.86S
LAMBERTVILLE   CLEAR     55  47  76 SE6       29.85S
LANSING        CLOUDY    53  40  61 SE9       29.86S
LAPEER         FAIR      48  37  66 CALM      29.90S
MASON          CLOUDY    51  43  74 E5        29.86F
MONROE         PTCLDY    51  47  84 E8        29.86S
MT. CLEMENS    CLOUDY    50  42  75 E8        29.88F
PONTIAC        PTCLDY    50  40  68 E8        29.88F
PORT HOPE        N/A     48  36  63 SE15G24   29.91F
PORT HURON     CLEAR     45  36  70 E6        29.91F
TRI CITIES     PTCLDY    49  41  74 E8        29.89S
MIDLAND        FAIR      47  38  72 E5        29.88F
TROY           PTCLDY    51  39  63 E5        29.90F
SAGINAW HB     CLOUDY    48  36  61 E5        29.89S
$$
MIZ043>046-050>051-056>058-064>065-071>073-077>080-250800-
SOUTHWEST LOWER MICHIGAN

CITY           SKY/WX    TMP DP  RH WIND       PRES   REMARKS
BATTLE CREEK   CLEAR     55  45  68 SE7       29.84S
BENTON HARBOR  CLEAR     54  38  54 SE8       29.79F
BIG RAPIDS     CLEAR     45  39  79 SE5       29.85F
COLDWATER      CLOUDY    52  46  79 SE8       29.84S
FREMONT        FAIR      52  37  57 E10G16    29.81F
HOLLAND        CLEAR     55  39  54 SE10      29.81F
GRAND RAPIDS   CLEAR     52  40  63 E9        29.83F
IONIA          FAIR      48  40  74 CALM      29.84F
KALAMAZOO      CLEAR     53  41  63 SE3       29.83S
LUDINGTON      CLOUDY    53  40  62 SE12      29.80F
MARSHALL       PTCLDY    52  44  75 E6        29.84S
MOUNT PLEASANT CLEAR     42  40  93 CALM      29.87F
MUSKEGON       CLOUDY    54  36  50 SE12      29.80F
SOUTH HAVEN    CLEAR     55  39  56 SE7       29.79F
$$
MIZ016>042-250800-
NORTHERN LOWER MICHIGAN

CITY           SKY/WX    TMP DP  RH WIND       PRES   REMARKS
ALPENA         CLEAR     39  37  92 E5        29.94F
BEAVER ISLAND  MOCLDY    44  36  72 E12       29.87F
BELLAIRE       CLOUDY    53  36  52 SE7       29.87S
CADILLAC       CLEAR     44  37  78 SE5       29.85S
CHARLEVOIX     CLOUDY    48  37  65 E7        29.89S
FRANKFORT      CLOUDY    54  38  55 SE8       29.81F
GAYLORD        CLOUDY    43  34  70 SE7       29.89S
GRAYLING       CLEAR     39  34  84 CALM      29.89F
HARBOR SPRINGS CLOUDY    42  35  74 E12       29.89F
HOUGHTON LAKE  CLEAR     47  37  68 SE8       29.89F
MANISTEE       PTCLDY    53  39  59 E9        29.81S
OSCODA         CLOUDY    48  35  61 SE3       29.93S
PELLSTON       CLEAR     40  32  73 SE3       29.91F
ROGERS CITY    CLEAR     40  36  83 SE6       29.94F
TRAVERSE CITY  PTCLDY    52  37  56 CALM      29.83F
$$
MIZ007>008-015-250800-
EASTERN UPPER MICHIGAN

CITY           SKY/WX    TMP DP  RH WIND       PRES   REMARKS
KINROSS        PTCLDY    41  31  67 E14       29.94R
MACKINAC ISLAN CLEAR     38  33  82 E13G22    29.92S WCI  30
NEWBERRY       CLOUDY    43  33  65 SE7G18    29.88F
S. S. MARIE    CLOUDY    45  30  55 SE13G20   29.94S
MUNISING         N/A     47  36  65 S5        29.82S
$$
MIZ004>006-011>014-085-250800-
CENTRAL UPPER MICHIGAN

CITY           SKY/WX    TMP DP  RH WIND       PRES   REMARKS
MANISTIQUE     CLOUDY    44  38  77 E17G23    29.84S
ESCANABA       CLOUDY    45  40  82 E8        29.81F
MENOMINEE      CLOUDY    43  38  82 SW3       29.81S
SAWYER-GWINN   CLOUDY    42  35  75 SE7       29.80F
$$
MIZ001>003-009>011-084-250800-
WESTERN UPPER MICHIGAN

CITY           SKY/WX    TMP DP  RH WIND       PRES   REMARKS
IRON MOUNTAIN  CLOUDY    43  34  70 E6        29.76F
HOUGHTON       LGT RAIN  50  34  54 VRB5G23   29.73F
COPPER HARBOR    N/A     43  36  76 W8        29.78R
IRONWOOD       CLOUDY    57  34  41 SE10      29.65F
$$

ABBREVIATIONS USED IN REMARKS
   TC - TEMPERATURE IN CELSIUS
  WCI - WIND CHILL INDEX
   HX - HEAT INDEX
  VSB - VISIBILITY





USA.gov is the U.S. government's official web portal to all federal, state and local government web resources and services.